When you browse on this site, cookies collect data to enhance your experience and personalize the content and advertising you see.
Visit our Privacy Policy to learn more. By continuing to use the site, you agree to this use of cookies and data.
  • In Romania
  • List of Countries
  • For 7 days
  • Water Temperature
  • Satellite Maps
  • Weather Map
  • Weather Widgets
  • user-avatar
    Login

    Hourly Weather Luneville

    Today, 17 June, Monday

    Time Temperature Precipitation Wind Pressure Humidity
    00:00 +13°C° 0 mm 1 mps 745 mmHg 90%
    01:00 +13°C° 0 mm 1 mps 745 mmHg 90%
    02:00 +13°C° 0 mm 1 mps 744 mmHg 91%
    03:00 +12°C° 0 mm 1 mps 744 mmHg 91%
    04:00 +13°C° 0 mm 2 mps 744 mmHg 89%
    05:00 +15°C° 0 mm 2 mps 744 mmHg 87%
    06:00 +16°C° 0 mm 2 mps 744 mmHg 85%
    07:00 +18°C° 0 mm 3 mps 744 mmHg 79%
    08:00 +20°C° 0 mm 3 mps 744 mmHg 74%
    09:00 +22°C° 0 mm 3 mps 744 mmHg 68%
    10:00 +24°C° 0 mm 3 mps 744 mmHg 65%
    11:00 +25°C° 0 mm 3 mps 743 mmHg 63%
    12:00 +26°C° 0 mm 3 mps 743 mmHg 60%
    13:00 +26°C° 0 mm 3 mps 743 mmHg 61%
    14:00 +26°C° 0 mm 4 mps 742 mmHg 62%
    15:00 +26°C° 0 mm 4 mps 742 mmHg 63%
    16:00 +25°C° 0 mm 3 mps 742 mmHg 67%
    17:00 +24°C° 0 mm 3 mps 741 mmHg 72%
    18:00 +24°C° 0 mm 3 mps 741 mmHg 76%
    19:00 +21°C° 0 mm 2 mps 741 mmHg 79%
    20:00 +19°C° 0 mm 2 mps 741 mmHg 82%
    21:00 +18°C° 0 mm 2 mps 741 mmHg 86%
    22:00 +18°C° 0 mm 1 mps 741 mmHg 87%
    23:00 +18°C° 0 mm 1 mps 741 mmHg 89%

    Tomorrow, 18 June, Tuesday

    Time Temperature Precipitation Wind Pressure Humidity
    00:00 +16°C° 0 mm 1 mps 741 mmHg 90%
    01:00 +16°C° 0 mm 1 mps 741 mmHg 91%
    02:00 +15°C° 0 mm 1 mps 741 mmHg 91%
    03:00 +14°C° 0 mm 0 mps 740 mmHg 91%
    04:00 +15°C° 0 mm 0 mps 740 mmHg 89%
    05:00 +17°C° 0 mm 0 mps 740 mmHg 87%
    06:00 +18°C° 0 mm 0 mps 740 mmHg 85%
    07:00 +19°C° 0.1 mm 0 mps 740 mmHg 82%
    08:00 +23°C° 0.1 mm 1 mps 740 mmHg 78%
    09:00 +25°C° 0.1 mm 1 mps 740 mmHg 74%
    10:00 +25°C° 0.3 mm 1 mps 740 mmHg 70%
    11:00 +26°C° 0.3 mm 1 mps 740 mmHg 67%
    12:00 +27°C° 0.3 mm 1 mps 739 mmHg 63%
    13:00 +27°C° 0 mm 1 mps 739 mmHg 63%
    14:00 +27°C° 0 mm 1 mps 739 mmHg 62%
    15:00 +27°C° 0 mm 1 mps 739 mmHg 62%
    16:00 +27°C° 0 mm 1 mps 739 mmHg 65%
    17:00 +26°C° 0 mm 1 mps 739 mmHg 69%
    18:00 +24°C° 0 mm 0 mps 738 mmHg 72%
    19:00 +22°C° 0 mm 0 mps 738 mmHg 75%
    20:00 +22°C° 0 mm 1 mps 738 mmHg 79%
    21:00 +20°C° 0 mm 1 mps 738 mmHg 82%
    22:00 +19°C° 0 mm 1 mps 738 mmHg 82%
    23:00 +19°C° 0 mm 1 mps 738 mmHg 81%

    Day after tomorrow, 19 June, Wednesday

    Time Temperature Precipitation Wind Pressure Humidity
    00:00 +18°C° 0 mm 1 mps 737 mmHg 81%
    01:00 +18°C° 0 mm 1 mps 737 mmHg 79%
    02:00 +18°C° 0 mm 1 mps 737 mmHg 78%
    03:00 +16°C° 0 mm 1 mps 737 mmHg 76%
    04:00 +18°C° 0 mm 1 mps 737 mmHg 77%
    05:00 +18°C° 0 mm 2 mps 737 mmHg 77%
    06:00 +19°C° 0 mm 2 mps 737 mmHg 77%
    07:00 +21°C° 0 mm 3 mps 737 mmHg 73%
    08:00 +24°C° 0 mm 3 mps 738 mmHg 68%
    09:00 +25°C° 0 mm 4 mps 738 mmHg 64%
    10:00 +26°C° 0 mm 4 mps 738 mmHg 64%
    11:00 +26°C° 0 mm 4 mps 738 mmHg 64%
    12:00 +27°C° 0 mm 4 mps 737 mmHg 65%
    13:00 +26°C° 0.8 mm 4 mps 737 mmHg 69%
    14:00 +26°C° 0.8 mm 4 mps 737 mmHg 74%
    15:00 +25°C° 0.8 mm 4 mps 737 mmHg 79%
    16:00 +25°C° 1 mm 4 mps 737 mmHg 81%
    17:00 +24°C° 1 mm 3 mps 738 mmHg 83%
    18:00 +22°C° 1 mm 3 mps 738 mmHg 86%
    19:00 +21°C° 0.5 mm 3 mps 738 mmHg 88%
    20:00 +19°C° 0.5 mm 2 mps 739 mmHg 90%
    21:00 +18°C° 0.5 mm 2 mps 739 mmHg 93%
    22:00 +17°C° 0 mm 2 mps 739 mmHg 93%
    23:00 +17°C° 0 mm 2 mps 739 mmHg 93%

    20 June, Thursday

    Time Temperature Precipitation Wind Pressure Humidity
    00:00 +16°C° 0 mm 2 mps 739 mmHg 94%
    01:00 +16°C° 0 mm 1 mps 739 mmHg 94%
    02:00 +15°C° 0 mm 1 mps 739 mmHg 94%
    03:00 +15°C° 0 mm 1 mps 739 mmHg 95%
    04:00 +16°C° 0 mm 1 mps 739 mmHg 94%
    05:00 +16°C° 0 mm 1 mps 740 mmHg 93%
    06:00 +18°C° 0 mm 1 mps 740 mmHg 92%
    07:00 +19°C° 0.2 mm 1 mps 740 mmHg 90%
    08:00 +20°C° 0.2 mm 1 mps 740 mmHg 87%
    09:00 +20°C° 0.2 mm 2 mps 741 mmHg 85%
    10:00 +21°C° 0.6 mm 2 mps 740 mmHg 82%
    11:00 +23°C° 0.6 mm 2 mps 740 mmHg 78%
    12:00 +22°C° 0.6 mm 3 mps 740 mmHg 75%
    13:00 +22°C° 0.5 mm 3 mps 740 mmHg 75%
    14:00 +22°C° 0.5 mm 3 mps 740 mmHg 75%
    15:00 +22°C° 0.5 mm 3 mps 740 mmHg 75%
    16:00 +23°C° 0.1 mm 2 mps 740 mmHg 78%
    17:00 +23°C° 0.1 mm 2 mps 740 mmHg 81%
    18:00 +22°C° 0.1 mm 1 mps 740 mmHg 84%
    19:00 +21°C° 0 mm 1 mps 740 mmHg 87%
    20:00 +20°C° 0 mm 1 mps 740 mmHg 89%
    21:00 +18°C° 0 mm 1 mps 740 mmHg 91%
    22:00 +16°C° 0 mm 0 mps 740 mmHg 92%
    23:00 +15°C° 0 mm 0 mps 740 mmHg 92%

    21 June, Friday

    Time Temperature Precipitation Wind Pressure Humidity
    00:00 +15°C° 0 mm 0 mps 740 mmHg 93%
    01:00 +16°C° 0 mm 1 mps 740 mmHg 93%
    02:00 +15°C° 0 mm 1 mps 740 mmHg 94%
    03:00 +15°C° 0 mm 1 mps 740 mmHg 94%
    04:00 +15°C° 0 mm 1 mps 740 mmHg 92%
    05:00 +16°C° 0 mm 1 mps 741 mmHg 91%
    06:00 +18°C° 0 mm 1 mps 741 mmHg 89%
    07:00 +18°C° 0.2 mm 1 mps 741 mmHg 89%
    08:00 +18°C° 0.2 mm 1 mps 741 mmHg 89%
    09:00 +19°C° 0.2 mm 1 mps 742 mmHg 89%
    10:00 +19°C° 0.5 mm 1 mps 742 mmHg 88%
    11:00 +19°C° 0.5 mm 1 mps 742 mmHg 87%
    12:00 +20°C° 0.5 mm 1 mps 742 mmHg 86%
    13:00 +21°C° 0.7 mm 1 mps 742 mmHg 84%
    14:00 +21°C° 0.7 mm 1 mps 742 mmHg 82%
    15:00 +22°C° 0.7 mm 1 mps 742 mmHg 79%
    16:00 +22°C° 0.8 mm 1 mps 742 mmHg 82%
    17:00 +20°C° 0.8 mm 2 mps 742 mmHg 85%
    18:00 +20°C° 0.8 mm 2 mps 742 mmHg 87%
    19:00 +18°C° 0 mm 2 mps 742 mmHg 89%
    20:00 +18°C° 0 mm 1 mps 742 mmHg 90%
    21:00 +15°C° 0 mm 1 mps 742 mmHg 91%
    22:00 +15°C° 0 mm 1 mps 742 mmHg 92%
    23:00 +14°C° 0 mm 1 mps 742 mmHg 93%

    22 June, Saturday

    Time Temperature Precipitation Wind Pressure Humidity
    00:00 +14°C° 0 mm 1 mps 742 mmHg 93%
    01:00 +13°C° 0 mm 1 mps 742 mmHg 93%
    02:00 +13°C° 0 mm 1 mps 742 mmHg 93%
    03:00 +13°C° 0 mm 2 mps 742 mmHg 93%
    04:00 +13°C° 0 mm 2 mps 742 mmHg 92%
    05:00 +14°C° 0 mm 2 mps 742 mmHg 91%
    06:00 +15°C° 0 mm 2 mps 742 mmHg 90%
    07:00 +17°C° 0 mm 2 mps 742 mmHg 86%
    08:00 +19°C° 0 mm 3 mps 742 mmHg 81%
    09:00 +21°C° 0 mm 3 mps 742 mmHg 76%
    10:00 +22°C° 0.2 mm 3 mps 742 mmHg 74%
    11:00 +22°C° 0.2 mm 3 mps 742 mmHg 73%
    12:00 +24°C° 0.2 mm 3 mps 741 mmHg 71%
    13:00 +24°C° 0.4 mm 3 mps 741 mmHg 73%
    14:00 +24°C° 0.4 mm 3 mps 741 mmHg 74%
    15:00 +24°C° 0.4 mm 3 mps 741 mmHg 76%
    16:00 +22°C° 0.6 mm 3 mps 741 mmHg 80%
    17:00 +23°C° 0.6 mm 2 mps 741 mmHg 83%
    18:00 +21°C° 0.6 mm 2 mps 741 mmHg 87%
    19:00 +20°C° 0 mm 2 mps 741 mmHg 89%
    20:00 +18°C° 0 mm 2 mps 742 mmHg 90%
    21:00 +18°C° 0 mm 1 mps 742 mmHg 92%
    22:00 +16°C° 0 mm 1 mps 742 mmHg 92%
    23:00 +16°C° 0 mm 1 mps 742 mmHg 92%
    Show more